TimeCDT,TemperatureF,Dew PointF,Humidity,Sea Level PressureIn,VisibilityMPH,Wind Direction,Wind SpeedMPH,Gust SpeedMPH,PrecipitationIn,Events,Conditions,WindDirDegrees,DateUTC
12:53 AM,18.0,12.0,78,30.28,10.0,West,8.1,-,N/A,,Clear,280,2013-04-02 05:53:00
1:53 AM,17.1,10.9,77,30.29,10.0,West,8.1,-,N/A,,Clear,280,2013-04-02 06:53:00
2:53 AM,16.0,10.0,77,30.30,10.0,West,8.1,-,N/A,,Clear,280,2013-04-02 07:53:00
3:53 AM,15.1,9.0,77,30.30,10.0,West,6.9,-,N/A,,Clear,280,2013-04-02 08:53:00
4:53 AM,14.0,8.1,77,30.32,10.0,WNW,9.2,-,N/A,,Overcast,290,2013-04-02 09:53:00
5:53 AM,12.9,8.1,81,30.32,10.0,WNW,6.9,-,N/A,,Mostly Cloudy,300,2013-04-02 10:53:00
6:53 AM,14.0,9.0,80,30.33,10.0,West,6.9,-,N/A,,Mostly Cloudy,270,2013-04-02 11:53:00
7:53 AM,15.1,9.0,77,30.34,10.0,West,5.8,-,N/A,,Mostly Cloudy,270,2013-04-02 12:53:00
8:53 AM,18.0,9.0,68,30.37,10.0,NW,5.8,-,N/A,,Partly Cloudy,310,2013-04-02 13:53:00
9:53 AM,19.9,10.0,65,30.38,10.0,WNW,5.8,-,N/A,,Clear,300,2013-04-02 14:53:00
10:53 AM,23.0,12.0,63,30.39,10.0,NW,4.6,-,N/A,,Clear,320,2013-04-02 15:53:00
11:53 AM,24.1,15.1,69,30.40,10.0,North,6.9,-,N/A,,Clear,350,2013-04-02 16:53:00
12:53 PM,26.1,16.0,66,30.40,10.0,NW,5.8,-,N/A,,Clear,320,2013-04-02 17:53:00
1:53 PM,27.0,18.0,69,30.40,10.0,WNW,5.8,-,N/A,,Clear,290,2013-04-02 18:53:00
2:53 PM,28.9,19.0,67,30.40,10.0,NNW,5.8,-,N/A,,Clear,340,2013-04-02 19:53:00
3:53 PM,30.9,18.0,59,30.39,10.0,North,4.6,-,N/A,,Clear,350,2013-04-02 20:53:00
4:53 PM,30.9,14.0,50,30.38,10.0,North,5.8,-,N/A,,Clear,360,2013-04-02 21:53:00
5:53 PM,30.9,17.1,57,30.39,10.0,NNW,4.6,-,N/A,,Clear,340,2013-04-02 22:53:00
6:53 PM,30.0,17.1,59,30.39,10.0,NNW,3.5,-,N/A,,Clear,340,2013-04-02 23:53:00
7:53 PM,28.0,15.1,58,30.37,10.0,NNE,3.5,-,N/A,,Clear,30,2013-04-03 00:53:00
8:53 PM,25.0,19.9,81,30.37,10.0,ESE,4.6,-,N/A,,Clear,120,2013-04-03 01:53:00
9:53 PM,24.1,18.0,77,30.37,10.0,ESE,4.6,-,N/A,,Clear,120,2013-04-03 02:53:00
10:53 PM,23.0,17.6,80,30.31,10.0,SSE,4.6,-,N/A,,Clear,160,2013-04-03 03:53:00
11:53 PM,21.9,17.1,82,30.34,10.0,SSE,5.8,-,N/A,,Clear,160,2013-04-03 04:53:00